Weather History for Istanbul, Turkey

Change the Weather History Date:

Monday, October 7, 2013

  Actual Average Record
Temperature  
Mean Temperature 55 °F -  
Max Temperature 66 °F 64 °F 77 °F (1999)
Min Temperature 44 °F 53 °F 44 °F (2013)
Degree Days  
Heating Degree Days 10    
Growing Degree Days 5 (Base 50)    
Moisture  
Dew Point 38 °F    
Average Humidity 52    
Maximum Humidity 76    
Minimum Humidity 25    
Precipitation  
Precipitation 0.00 in - - ()
Sea Level Pressure  
Sea Level Pressure 30.39 in    
Wind  
Wind Speed 8 mph ()    
Max Wind Speed 45 mph    
Max Gust Speed -    
Visibility 6.2 miles    
Events      
Averages and records for this station are not official NWS values.
T = Trace of Precipitation, MM = Missing Value Source: Averaged Metar Reports

Daily Weather History Graph

Daily Weather History Graph

Search for Another Location

Airport:

Trip Planner

Search our weather history database for the weather conditions in past years. The results will help you decide how hot, cold, wet, or windy it might be!

Date:

Astronomy

Oct. 07, 2013 Rise Set
Actual Time 7:07 AM EEST 6:36 PM EEST
Civil Twilight 6:40 AM EEST 7:04 PM EEST
Nautical Twilight 6:08 AM EEST 7:36 PM EEST
Astronomical Twilight 5:36 AM EEST 8:08 PM EEST
Moon 9:37 AM EEST (10/7) 8:04 PM EEST (10/7)
Length of Visible Light 12h 24m
Length of Day
11h 29m
Waxing Crescent, 7% of the Moon is Illuminated
Oct 7
Waxing Crescent
Oct 12
First Quarter
Oct 19
Full
Oct 27
Last Quarter
Nov 3
New

Hourly Weather History & Observations

Time (EEST) Temp. Windchill Dew Point Humidity Pressure Visibility Wind Dir Wind Speed Gust Speed Precip Events Conditions
12:20 AM 53.6 °F - 39.2 °F 58% 30.36 in - NE 5.8 mph - N/A   Clear
12:50 AM 51.8 °F - 39.2 °F 62% 30.36 in - NE 6.9 mph - N/A   Clear
1:20 AM 53.6 °F - 37.4 °F 54% 30.36 in - Variable 6.9 mph - N/A   Clear
1:50 AM 51.8 °F - 37.4 °F 58% 30.36 in - NE 6.9 mph - N/A   Clear
2:20 AM 48.2 °F - 37.4 °F 66% 30.39 in - NNW 8.1 mph - N/A   Clear
2:50 AM 46.4 °F 41.9 °F 37.4 °F 71% 30.39 in - North 9.2 mph - N/A   Clear
3:00 AM 46 °F - 37 °F 62% 30.40 in 6 mi North 9.2 mph - -  
3:20 AM 44.6 °F 40.2 °F 37.4 °F 76% 30.36 in - NNW 8.1 mph - N/A   Clear
3:50 AM 46.4 °F 43.5 °F 37.4 °F 71% 30.36 in - NNW 5.8 mph - N/A   Clear
4:20 AM 46.4 °F 42.4 °F 37.4 °F 71% 30.36 in - North 8.1 mph - N/A   Clear
4:50 AM 46.4 °F 42.9 °F 39.2 °F 76% 30.39 in - NNW 6.9 mph - N/A   Clear
5:20 AM 50.0 °F - 39.2 °F 66% 30.39 in - North 6.9 mph - N/A   Clear
5:50 AM 50.0 °F - 39.2 °F 66% 30.39 in - NNE 3.5 mph - N/A   Clear
6:20 AM 51.8 °F - 37.4 °F 58% 30.39 in 6.2 mi ENE 5.8 mph - N/A   Partly Cloudy
6:50 AM 53.6 °F - 39.2 °F 58% 30.39 in 6.2 mi ENE 4.6 mph - N/A   Scattered Clouds
7:20 AM 53.6 °F - 39.2 °F 58% 30.39 in 6.2 mi NE 5.8 mph - N/A   Mostly Cloudy
7:50 AM 53.6 °F - 39.2 °F 58% 30.42 in 6.2 mi East 6.9 mph - N/A   Mostly Cloudy
8:20 AM 57.2 °F - 39.2 °F 51% 30.42 in 6.2 mi Variable 6.9 mph - N/A   Mostly Cloudy
8:50 AM 57.2 °F - 37.4 °F 48% 30.42 in 6.2 mi Variable 6.9 mph - N/A   Mostly Cloudy
9:00 AM 56 °F - 38 °F 38% 30.44 in 6 mi East 6.9 mph - -   Partly Cloudy
9:20 AM 57.2 °F - 37.4 °F 48% 30.42 in 6.2 mi ESE 9.2 mph - N/A   Mostly Cloudy
9:50 AM 57.2 °F - 35.6 °F 44% 30.42 in 6.2 mi East 8.1 mph - N/A   Mostly Cloudy
10:20 AM 57.2 °F - 35.6 °F 44% 30.42 in 6.2 mi East 8.1 mph - N/A   Mostly Cloudy
10:50 AM 59.0 °F - 35.6 °F 42% 30.42 in 6.2 mi East 11.5 mph - N/A   Scattered Clouds
11:20 AM 60.8 °F - 35.6 °F 39% 30.42 in 6.2 mi East 11.5 mph - N/A   Partly Cloudy
11:50 AM 60.8 °F - 35.6 °F 39% 30.42 in 6.2 mi East 13.8 mph - N/A   Partly Cloudy
12:20 PM 60.8 °F - 37.4 °F 42% 30.42 in 6.2 mi East 12.7 mph - N/A   Partly Cloudy
12:50 PM 62.6 °F - 35.6 °F 37% 30.42 in 6.2 mi ESE 12.7 mph - N/A   Partly Cloudy
1:20 PM 62.6 °F - 37.4 °F 39% 30.39 in 6.2 mi East 11.5 mph - N/A   Partly Cloudy
1:50 PM 64.4 °F - 37.4 °F 37% 30.39 in - ESE 13.8 mph - N/A   Clear
2:20 PM 62.6 °F - 37.4 °F 39% 30.39 in - East 11.5 mph - N/A   Clear
2:50 PM 62.6 °F - 37.4 °F 39% 30.39 in - East 10.4 mph - N/A   Clear
3:00 PM 63 °F - 36 °F 25% 30.40 in 6 mi East 44.9 mph - -  
3:20 PM 64.4 °F - 37.4 °F 37% 30.39 in - East 11.5 mph - N/A   Clear
3:50 PM 64.4 °F - 35.6 °F 34% 30.39 in - East 9.2 mph - N/A   Clear
4:20 PM 62.6 °F - 35.6 °F 37% 30.39 in - NE 10.4 mph - N/A   Clear
4:50 PM 62.6 °F - 37.4 °F 39% 30.36 in - NNE 13.8 mph - N/A   Clear
5:20 PM 60.8 °F - 37.4 °F 42% 30.36 in - NNE 13.8 mph - N/A   Clear
5:50 PM 59.0 °F - 37.4 °F 45% 30.36 in - NE 13.8 mph - N/A   Clear
6:20 PM 59.0 °F - 39.2 °F 48% 30.36 in - NE 13.8 mph - N/A   Clear
6:50 PM 57.2 °F - 39.2 °F 51% 30.39 in - NE 12.7 mph - N/A   Clear
7:20 PM 59.0 °F - 41.0 °F 51% 30.39 in - NE 12.7 mph - N/A   Clear
7:50 PM 57.2 °F - 39.2 °F 51% 30.39 in - ENE 11.5 mph - N/A   Clear
8:20 PM 55.4 °F - 41.0 °F 58% 30.39 in - NE 11.5 mph - N/A   Clear
8:50 PM 55.4 °F - 39.2 °F 54% 30.39 in - ENE 11.5 mph - N/A   Clear
9:00 PM 56 °F - 40 °F 43% 30.40 in 6 mi ENE 11.5 mph - -  
9:20 PM 55.4 °F - 39.2 °F 54% 30.39 in - ENE 12.7 mph - N/A   Clear
9:50 PM 55.4 °F - 39.2 °F 54% 30.39 in - NE 11.5 mph - N/A   Clear
10:20 PM 55.4 °F - 41.0 °F 58% 30.39 in - NE 9.2 mph - N/A   Clear
10:50 PM 55.4 °F - 41.0 °F 58% 30.39 in - NE 8.1 mph - N/A   Clear
11:20 PM 53.6 °F - 41.0 °F 62% 30.39 in - NE 6.9 mph - N/A   Clear
11:50 PM 53.6 °F - 41.0 °F 62% 30.39 in - NE 6.9 mph - N/A   Clear